TimePST,TemperatureF,Dew PointF,Humidity,Sea Level PressureIn,VisibilityMPH,Wind Direction,Wind SpeedMPH,Gust SpeedMPH,PrecipitationIn,Events,Conditions,WindDirDegrees,DateUTC
12:51 AM,57.9,16.0,19,30.06,10.0,NNE,4.6,-,N/A,,Clear,20,2013-01-22 08:51:00
2:51 AM,57.0,12.9,18,30.06,10.0,North,3.5,-,N/A,,Clear,10,2013-01-22 10:51:00
3:51 AM,53.1,18.0,25,30.05,10.0,ENE,5.8,-,N/A,,Clear,60,2013-01-22 11:51:00
4:51 AM,51.1,18.0,27,30.06,10.0,ENE,6.9,-,N/A,,Clear,70,2013-01-22 12:51:00
5:51 AM,55.9,12.9,18,30.06,10.0,NNE,6.9,-,N/A,,Clear,30,2013-01-22 13:51:00
6:51 AM,54.0,14.0,21,30.08,10.0,ENE,4.6,-,N/A,,Clear,70,2013-01-22 14:51:00
7:51 AM,61.0,17.1,18,30.08,10.0,Calm,Calm,-,N/A,,Clear,0,2013-01-22 15:51:00
8:51 AM,66.0,21.0,18,30.09,10.0,NNE,5.8,-,N/A,,Clear,30,2013-01-22 16:51:00
9:51 AM,73.0,15.1,11,30.10,10.0,NNE,6.9,-,N/A,,Clear,30,2013-01-22 17:51:00
10:51 AM,75.9,16.0,10,30.09,10.0,East,5.8,-,N/A,,Clear,80,2013-01-22 18:51:00
11:51 AM,79.0,14.0,9,30.05,10.0,East,6.9,-,N/A,,Clear,80,2013-01-22 19:51:00
12:51 PM,79.0,14.0,9,30.02,10.0,Variable,3.5,-,N/A,,Clear,0,2013-01-22 20:51:00
1:51 PM,77.0,19.0,11,30.03,10.0,SSW,8.1,-,N/A,,Clear,210,2013-01-22 21:51:00
2:51 PM,72.0,28.9,20,30.03,10.0,WSW,5.8,-,N/A,,Clear,250,2013-01-22 22:51:00
3:51 PM,71.1,26.1,19,30.01,10.0,SSW,3.5,-,N/A,,Clear,210,2013-01-22 23:51:00
4:51 PM,64.0,34.0,33,30.04,10.0,Variable,3.5,-,N/A,,Clear,0,2013-01-23 00:51:00
5:51 PM,63.0,37.0,38,30.03,10.0,Calm,Calm,-,N/A,,Clear,0,2013-01-23 01:51:00
6:51 PM,60.1,39.0,46,30.06,10.0,Calm,Calm,-,N/A,,Clear,0,2013-01-23 02:51:00
7:51 PM,57.9,39.0,49,30.04,10.0,ENE,3.5,-,N/A,,Clear,70,2013-01-23 03:51:00
8:51 PM,57.9,35.1,42,30.06,10.0,Calm,Calm,-,N/A,,Clear,0,2013-01-23 04:51:00
9:51 PM,57.0,32.0,39,30.08,10.0,Calm,Calm,-,N/A,,Clear,0,2013-01-23 05:51:00
10:51 PM,57.9,28.9,33,30.07,10.0,NE,4.6,-,N/A,,Clear,40,2013-01-23 06:51:00
11:51 PM,57.9,26.1,30,30.05,10.0,NE,5.8,-,N/A,,Clear,50,2013-01-23 07:51:00